Maplewood, Minnesota, United States
Lat: 44.95N, Lon: 93W
Wx Zone: MNZ062
Local Info
Past Weather Observations for Monday, April 14, 2014

NOTE: This archive is for the closest National Weather Service station to Maplewood. Information may differ from the station used for current weather conditions.

Time Weather Temperature Dewpoint Humidity Pressure Winds Precip Visibility
23:53
Overcast
27°F / -3°C 10°F / -12°C 50% 30.12 in
(1020 mb)
NNW 11.5 mph
(NNW 19 kph)
- 10SM
22:53
Clear
27°F / -3°C 10°F / -12°C 50% 30.12 in
(1020 mb)
NW 16.1 mph
(NW 26 kph)
- 10SM
21:53
Clear
28°F / -2°C 10°F / -12°C 47% 30.12 in
(1020 mb)
NNW 13.8 mph
(NNW 22 kph)
- 10SM
20:53
Partly Cloudy
28°F / -2°C 9°F / -13°C 43% 30.12 in
(1020 mb)
Calm - 10SM
19:53
Partly Cloudy
30°F / -1°C 7°F / -14°C 37% 30.09 in
(1019 mb)
NNW 16.1 mph
(NNW 26 kph)
- 10SM
18:53
Mostly Cloudy
32°F / 0°C 5°F / -15°C 32% 30.09 in
(1019 mb)
NW 16.1 mph
(NW 26 kph)
- 10SM
17:53
Overcast
34°F / 1°C 3°F / -16°C 27% 30.06 in
(1018 mb)
NNW 12.7 mph
(NNW 20 kph)
- 10SM
16:53
Mostly Cloudy
36°F / 2°C 3°F / -16°C 25% 30.06 in
(1018 mb)
NNW 17.3 mph
(NNW 28 kph)
- 10SM
15:53
Overcast
37°F / 3°C 7°F / -14°C 28% 30.06 in
(1018 mb)
N 23 mph
(N 37 kph)
- 10SM
14:53
Mostly Cloudy
36°F / 2°C 7°F / -14°C 30% 30.06 in
(1018 mb)
NNW 17.3 mph
(NNW 28 kph)
- 10SM
13:53
Partly Cloudy
36°F / 2°C 7°F / -14°C 30% 30.06 in
(1018 mb)
NNW 12.7 mph
(NNW 20 kph)
- 10SM
12:53
Partly Cloudy
36°F / 2°C 9°F / -13°C 32% 30.06 in
(1018 mb)
NNW 17.3 mph
(NNW 28 kph)
- 10SM
11:53
Clear
34°F / 1°C 9°F / -13°C 35% 30.06 in
(1018 mb)
NNW 18.4 mph
(NNW 30 kph)
- 10SM
10:53
Partly Cloudy
34°F / 1°C 10°F / -12°C 38% 30.06 in
(1018 mb)
NW 15 mph
(NW 24 kph)
- 10SM
09:53
Clear
34°F / 1°C 10°F / -12°C 38% 30.06 in
(1018 mb)
NNW 23 mph
(NNW 37 kph)
- 10SM
08:53
Clear
30°F / -1°C 12°F / -11°C 47% 30.06 in
(1018 mb)
NNW 23 mph
(NNW 37 kph)
- 10SM
07:53
Clear
28°F / -2°C 14°F / -10°C 55% 30.06 in
(1018 mb)
NNW 18.4 mph
(NNW 30 kph)
- 10SM
06:53
Mostly Cloudy
28°F / -2°C 16°F / -9°C 59% 30.04 in
(1017 mb)
NNW 18.4 mph
(NNW 30 kph)
- 10SM
05:53
Mostly Cloudy
28°F / -2°C 16°F / -9°C 59% 30.01 in
(1016 mb)
N 18.4 mph
(N 30 kph)
- 10SM
04:53
Overcast
28°F / -2°C 16°F / -9°C 59% 29.98 in
(1015 mb)
NNW 18.4 mph
(NNW 30 kph)
- 10SM
03:53
Overcast
30°F / -1°C 18°F / -8°C 59% 29.95 in
(1014 mb)
NNW 19.6 mph
(NNW 32 kph)
- 10SM
02:53
Overcast
30°F / -1°C 19°F / -7°C 64% 29.95 in
(1014 mb)
NNW 26.5 mph
(NNW 43 kph)
- 10SM
01:53
Mostly Cloudy
32°F / 0°C 19°F / -7°C 60% 29.92 in
(1013 mb)
NNW 27.6 mph
(NNW 44 kph)
- 10SM
00:53
Overcast
32°F / 0°C 19°F / -7°C 60% 29.92 in
(1013 mb)
NNW 23 mph
(NNW 37 kph)
- 10SM
Time Weather Temperature Dewpoint Humidity Pressure Winds Precip Visibility


Weather for websites

WeatherForYou.com, LLC is not responsible for any damages or problems caused by this service. Current weather conditions are obtained from the closest station including government and personal stations which may have varying degrees of accuracy. Weather forecasts are derived from the NOAA NDFD. Like all things, this site belongs to Jesus Christ... He just trusts me to maintain it. If you have any questions or comments email webmaster@weatherforyou.com

Copyright © 2014, WeatherForYou.com LLC. All rights reserved.